This demonstration page uses our WeatherBlox Daily Observations layout. Learn more.

Left ArrowRight Arrow

Hourly Observations for July 2, 2016

Temp ( °F °C ) Dew Point ( °F °C ) Humidity (%) Winds ( mph kmh ) Pressure ( in mb ) Visibility ( mi km ) Precip ( " mm )
12:58 am 00:58 Cloudy 70 21 60 15.3 70 70 E 5 7 30.07 1018 10 16 0.00 0.00
1:58 am 01:58 Cloudy 69 20.5 59 14.8 70 70 ENE 7 11 30.06 1018 10 16 0.00 0.00
2:08 am 02:08 Cloudy with Light Rain 68 20 59 15 73 73 ENE 7 11 30.03 1017 10 16 0.00 0.00
2:44 am 02:44 Clear 66 19 59 15 78 78 ENE 7 11 30.03 1017 10 16 0.00 0.00
2:58 am 02:58 Clear 66 19 59 15 78 78 ENE 8 13 30.05 1018 10 16 0.00 0.03
3:31 am 03:31 Cloudy with Light Rain 66 19 61 16 83 83 ENE 3 6 30.00 1016 10 16 0.00 0.00
3:41 am 03:41 Clear with Light Rain 64 18 61 16 88 88 ENE 5 7 30.03 1017 5 8 0.00 0.00
3:58 am 03:58 Cloudy with Rain 65 18.1 60 15.8 87 87 SE 5 7 30.05 1018 6 10 0.02 0.51
4:01 am 04:01 Cloudy with Rain 64 18 61 16 88 88 SE 3 6 30.03 1017 4 6 0.00 0.00
4:31 am 04:31 Cloudy with Light Rain 63 17 63 17 100 100 E 3 6 30.03 1017 7 11 0.00 0.00
4:53 am 04:53 Mostly Cloudy with Heavy Rain 63 17 63 17 100 100 E 1 2 30.06 1018 2 3 0.00 0.00
4:58 am 04:58 Mostly Cloudy with Heavy Rain 62 16.8 62 16.7 99 99 E 7 11 30.06 1018 3 4 0.32 8.13
5:07 am 05:07 Cloudy with Heavy Rain 63 17 63 17 100 100 ESE 7 11 30.03 1017 3 5 0.00 0.00
5:19 am 05:19 Cloudy with Heavy Rain 61 16 61 16 100 100 E 9 15 30.06 1018 3 4 0.00 0.00
5:58 am 05:58 Cloudy with Rain 62 16.6 62 16.6 100 100 ENE 9 15 30.06 1018 3 4 0.49 12.45
6:16 am 06:16 Cloudy with Rain 61 16 61 16 100 100 ENE 12 19 30.06 1018 3 5 0.00 0.00
6:32 am 06:32 Cloudy with Heavy Rain 61 16 61 16 100 100 NE 8 13 30.06 1018 2 3 0.00 0.00
6:38 am 06:38 Cloudy with Light Rain 61 16 61 16 100 100 NE 10 17 30.06 1018 4 6 0.00 0.00
6:58 am 06:58 Cloudy with Rain 62 16.4 62 16.4 100 100 NE 12 19 30.06 1018 6 10 0.14 3.56
7:58 am 07:58 Cloudy with Light Rain 61 16.2 61 16.2 100 100 E 8 13 30.08 1019 8 13 0.02 0.51
8:05 am 08:05 Cloudy 61 16 61 16 100 100 E 10 17 30.09 1019 10 16 0.00 0.00
8:22 am 08:22 Cloudy with Light Rain 63 17 61 16 94 94 ENE 13 20 30.03 1017 7 11 0.00 0.00
8:58 am 08:58 Cloudy with Rain 62 16.5 62 16.5 100 100 E 12 19 30.07 1018 3 5 0.01 0.25
9:04 am 09:04 Cloudy with Rain 63 17 61 16 94 94 E 8 13 30.03 1017 3 4 0.00 0.00
9:16 am 09:16 Cloudy with Heavy Rain 61 16 61 16 100 100 E 9 15 30.09 1019 2 3 0.00 0.00
9:19 am 09:19 Cloudy with Heavy Rain 61 16 61 16 100 100 E 9 15 30.09 1019 2 2 0.00 0.00
9:31 am 09:31 Cloudy with Heavy Rain 61 16 61 16 100 100 E 12 19 30.09 1019 2 3 0.00 0.00
9:37 am 09:37 Cloudy with Rain 61 16 61 16 100 100 E 10 17 30.09 1019 3 4 0.00 0.00
9:58 am 09:58 Cloudy with Heavy Rain 61 16.1 61 16.1 100 100 E 10 17 30.08 1019 3 4 0.34 8.64
10:06 am 10:06 Cloudy with Rain 61 16 61 16 100 100 E 14 22 30.09 1019 3 5 0.00 0.00
10:16 am 10:16 Cloudy with Rain 61 16 61 16 100 100 E 15 24 30.06 1018 4 6 0.00 0.00
10:51 am 10:51 Cloudy with Light Rain 61 16 61 16 100 100 E 12 19 30.06 1018 9 14 0.00 0.00
10:58 am 10:58 Cloudy with Rain 61 16 61 16 100 100 E 13 20 30.05 1018 5 8 0.10 2.54
11:38 am 11:38 Cloudy with Rain 61 16 61 16 100 100 E 10 17 30.06 1018 5 8 0.00 0.00
11:58 am 11:58 Cloudy with Light Rain 62 16.6 62 16.6 100 100 E 10 17 30.05 1018 5 8 0.09 2.29
12:28 pm 12:28 Cloudy with Light Rain 63 17 63 17 100 100 E 12 19 30.03 1017 8 13 0.00 0.00
12:32 pm 12:32 Cloudy with Light Rain 63 17 63 17 100 100 E 10 17 30.03 1017 7 11 0.00 0.00
12:58 pm 12:58 Cloudy with Rain 63 17.2 63 17.2 100 100 E 8 13 30.05 1018 5 8 0.08 2.03
1:30 pm 13:30 Cloudy with Light Rain 64 18 64 18 100 100 E 12 19 30.00 1016 6 10 0.00 0.00
1:45 pm 13:45 Mostly Cloudy with Light Rain 63 17 63 17 100 100 E 9 15 30.00 1016 7 11 0.00 0.00
1:54 pm 13:54 Mostly Cloudy with Light Rain 64 18 64 18 100 100 ESE 10 17 30.00 1016 6 10 0.00 0.00
1:58 pm 13:58 Mostly Cloudy with Light Rain 64 17.6 64 17.6 100 100 ESE 10 17 30.04 1017 8 13 0.05 1.27
2:58 pm 14:58 Mostly Cloudy with Light Rain 65 18.2 65 18.2 100 100 E 13 20 30.02 1017 6 10 0.06 1.52
3:37 pm 15:37 Partly Cloudy 64 18 64 18 100 100 ESE 14 22 30.00 1016 10 16 0.00 0.00
3:40 pm 15:40 Mostly Cloudy 64 18 64 18 100 100 E 12 19 30.00 1016 10 16 0.00 0.00
3:43 pm 15:43 Mostly Cloudy 64 18 64 18 100 100 E 13 20 30.00 1016 10 16 0.00 0.00
3:46 pm 15:46 Partly Cloudy 64 18 64 18 100 100 E 12 19 30.00 1016 10 16 0.00 0.00
3:54 pm 15:54 Partly Cloudy with Light Rain 64 18 64 18 100 100 E 12 19 30.00 1016 10 16 0.00 0.00
3:56 pm 15:56 Cloudy with Light Rain 64 18 64 18 100 100 E 14 22 30.00 1016 10 16 0.00 0.00
3:58 pm 15:58 Cloudy with Light Rain 65 18.2 64 17.5 96 96 E 14 22 30.02 1017 10 16 0.00 0.03
4:58 pm 16:58 Mostly Cloudy with Heavy Rain 65 18.1 64 17.8 98 98 E 9 15 30.01 1016 4 6 0.06 1.52
5:58 pm 17:58 Mostly Cloudy with Light Rain 65 18.1 64 17.9 99 99 ENE 7 11 30.02 1017 5 8 0.06 1.52
6:58 pm 18:58 Mostly Cloudy with Light Rain 64 17.9 64 17.9 100 100 ENE 10 17 29.99 1016 9 14 0.05 1.27
7:46 pm 19:46 Partly Cloudy with Light Rain 64 18 63 17 94 94 E 12 19 29.97 1015 10 16 0.00 0.00
7:58 pm 19:58 Partly Cloudy with Light Rain 64 17.7 63 17.4 98 98 E 10 17 29.99 1016 8 13 0.01 0.25
8:02 pm 20:02 Mostly Cloudy with Light Rain 64 18 63 17 94 94 ENE 10 17 29.97 1015 6 10 0.00 0.00
8:22 pm 20:22 Mostly Cloudy with Light Rain 63 17 63 17 100 100 E 10 17 29.97 1015 8 13 0.00 0.00
8:30 pm 20:30 Mostly Cloudy with Light Rain 63 17 63 17 100 100 E 9 15 29.97 1015 9 14 0.00 0.00
8:58 pm 20:58 Cloudy with Drizzle 63 17.2 62 16.7 97 97 E 9 15 30.00 1016 10 16 0.01 0.25
9:38 pm 21:38 Cloudy 63 17 63 17 100 100 E 8 13 29.97 1015 10 16 0.00 0.00
9:56 pm 21:56 Mostly Cloudy 63 17 63 17 100 100 ESE 7 11 29.97 1015 10 16 0.00 0.00
9:58 pm 21:58 Mostly Cloudy 63 17.3 62 16.7 96 96 E 8 13 30.01 1016 10 16 0.00 0.00
10:25 pm 22:25 Cloudy 63 17 61 16 94 94 E 14 22 29.97 1015 10 16 0.00 0.00
10:28 pm 22:28 Mostly Cloudy 63 17 59 15 88 88 E 10 17 29.97 1015 10 16 0.00 0.00
10:58 pm 22:58 Cloudy 63 17 59 15.2 89 89 E 13 20 30.01 1016 10 16 0.00 0.00
11:43 pm 23:43 Cloudy 63 17 61 16 94 94 E 9 15 29.97 1015 10 16 0.00 0.00
11:49 pm 23:49 Cloudy 63 17 61 16 94 94 E 9 15 29.97 1015 10 16 0.00 0.00
11:58 pm 23:58 Cloudy 62 16.8 60 15.7 93 93 E 9 15 30.02 1017 10 16 0.00 0.00

Powered by AerisWeather